{"data":{"norad_id":67299,"intl_designator":"2025-313BD","name":"2025-313BD","alt_names":[],"object_type":"PAYLOAD","status":"ACTIVE","operator":null,"country":"TBD","launch_date":"2025-12-28","launch_site_code":"VOSTO","launch_vehicle":null,"mission":null,"orbit_class":"UNKNOWN","rcs_meters":null,"size_class":null,"mass_kg":null,"dimensions":null,"purposes":[],"wikipedia_slug":null,"has_3d_model":false,"image_url":null,"decayed_at":null,"tle_current":{"epoch":"2026-05-25T04:28:17.990976Z","epoch_age_seconds":55564,"freshness":"FRESH","line1":"1 67299U 25313BD  26145.18631934  .00141102  00000+0  29912-2 0  9993","line2":"2 67299  97.3845 222.2791 0005141 110.6276 249.5524 15.44529657 22597","mean_motion":15.44529657,"eccentricity":0.0005141,"inclination_deg":97.3845,"raan_deg":222.2791,"arg_perigee_deg":110.6276,"mean_anomaly_deg":249.5524,"bstar":0.0029912,"rev_number":2259,"period_min":93.232266112453,"perigee_km":429.25895028635,"apogee_km":436.26191502661,"semimajor_km":6810.8974326565,"source":"CELESTRAK","updated_at":"2026-05-25T13:38:06.885774Z"}}}